[[{"header":{"parameterUnit":"m.s-1","parameterCategory":1,"la1":30.2991,"la2":30.254,"lo1":-89.0895,"lo2":-89.0444,"dy":0.0017,"dx":0.0017,"nx":28,"ny":28,"refTime":"2024-06-01T03:00:00:Z","depth":0,"parameterNumber":2,"parameterNumberName":"U-component_of_WINDS"},"data":[0,0,0,0,0,0,0,0,0,0,0,0,0,0,0,0,0,0,0,0,0,0,0,0,0,0,0,0,0,0,0,0,0,0,0,0,0,0,0,0,0,0,0,0,0,0,0,0,0,0,0,0,0,0,0,0,0,0,0.6844,0.6843,0,0.6802,0.6802,0.6801,0.6702,0.6699,0.6697,0.6695,0.6655,0.6656,0.6657,0,0,0,0,0,0,0,0,0,0,0,0,0,0.6838,0.6839,0.6844,0.6843,0.6843,0.6802,0.6802,0.6801,0.6702,0.6699,0.6697,0.6694,0.6655,0.6656,0.6657,0,0,0,0,0,0,0,0,0,0,0,0,0,0.6823,0.6839,0.6844,0.6788,0.6783,0.6802,0.6802,0.6801,0.6702,0.6699,0.6696,0.6693,0.6655,0.6656,0.6657,0.6728,0,0,0.6661,0.6662,0,0,0,0,0,0,0,0,0.6824,0.6823,0.6797,0.6792,0.6786,0.6754,0.6785,0.6777,0.6703,0.6733,0.6695,0.6692,0.6691,0.6689,0.6688,0.6726,0.6725,0.6662,0.6662,0.6663,0.6663,0,0,0,0,0,0,0,0.6825,0.6825,0.6827,0.6797,0.679,0.6766,0.676,0.6783,0.673,0.673,0.6723,0.6719,0.6687,0.6687,0.6687,0.6724,0.6662,0.6663,0.6664,0.6664,0.6814,0.6817,0,0,0,0,0,0,0.6834,0.6826,0.6829,0.6826,0.6798,0.6768,0.6762,0.6767,0.673,0.6721,0.6722,0.6715,0.6686,0.6685,0.6685,0.6762,0.6663,0.6664,0.6665,0.681,0.6814,0.6818,0,0,0,0,0,0,0.6834,0.6835,0.683,0.6824,0.6821,0.6772,0.6779,0.6768,0.6768,0.6723,0.6713,0.6731,0.6684,0.6683,0.6717,0.6759,0.6665,0.6666,0.6807,0.6812,0.6816,0.692,0,0,0,0,0,0,0.6835,0.6836,0.6863,0.6825,0.6822,0.6864,0.6781,0.677,0.677,0.676,0.6729,0.6721,0.6681,0.6715,0.6718,0.676,0.6667,0.6803,0.6809,0.6815,0.6912,0.6927,0.694,0,0,0,0,0,0.6835,0.6895,0.6864,0.6865,0.6854,0.6866,0.6865,0.6816,0.6774,0.68,0.677,0.6722,0.6754,0.672,0.6722,0.6765,0.68,0.6807,0.6814,0.6906,0.6924,0.694,0,0,0,0,0,0,0.6941,0.6889,0.6855,0.6905,0.689,0.685,0.6881,0.6838,0.6837,0.6828,0.6769,0.6763,0.6804,0.6788,0.675,0.6829,0.6769,0.6777,0.6838,0.6855,0.6869,0.6872,0.6668,0,0,0,0,0,0.6969,0.6983,0.6938,0.6986,0.698,0.6932,0.6936,0.6899,0.6883,0.6876,0.685,0.6836,0.6842,0.6848,0.6852,0.6909,0.69,0.6939,0.6953,0.6965,0.6972,0.6998,0.7014,0.6841,0.6841,0.6841,0,0,0.703,0.7003,0.7016,0.7006,0.6991,0.7006,0.6928,0.6948,0.6958,0.688,0.6909,0.6889,0.6869,0.6915,0.6933,0.6902,0.7018,0.6974,0.6984,0.6985,0.7007,0.7024,0.7038,0.6846,0.6845,0.6844,0,0,0.7147,0.7129,0.7166,0.7151,0.7128,0.7095,0.7103,0.7068,0.7051,0.7079,0.702,0.7031,0.7045,0.7032,0.7027,0.7135,0.709,0.7138,0.7212,0.7238,0.7251,0.7263,0.7299,0.7313,0.7146,0.7146,0.7146,0,0.7225,0.7245,0.719,0.7213,0.7209,0.7137,0.7173,0.7161,0.7142,0.7141,0.7106,0.7118,0.71,0.7139,0.7165,0.7165,0.7172,0.7141,0.7254,0.7265,0.7275,0.7309,0.7323,0.7152,0.7151,0.7151,0.715,0,0.734,0.7355,0.7387,0.7367,0.7367,0.7397,0.7346,0.7353,0.7316,0.7286,0.7314,0.729,0.7285,0.7292,0.7258,0.7326,0.7307,0.7264,0.7203,0.7298,0.7329,0.7342,0.716,0.7158,0.7157,0.7155,0,0,0.7525,0.7471,0.7484,0.7472,0.744,0.745,0.7475,0.7469,0.7475,0.7463,0.7481,0.7492,0.7451,0.7446,0.7408,0.7431,0.7515,0.7385,0.7383,0.7408,0.7586,0.7618,0.7634,0.7485,0.7487,0.7489,0.7587,0,0.7633,0.7672,0.7622,0.7672,0.7682,0.7612,0.7634,0.7616,0.7588,0.7593,0.7563,0.757,0.7517,0.7512,0.7532,0.7501,0.755,0.7493,0.7501,0.7502,0.7507,0.765,0.7685,0.7779,0.7599,0.7601,0.7603,0,0.7765,0.7756,0.7806,0.7767,0.7769,0.779,0.7778,0.7785,0.7762,0.774,0.7732,0.7687,0.7707,0.7648,0.7675,0.7637,0.7637,0.7622,0.7625,0.7623,0.7558,0.7651,0.7808,0.7821,0.7622,0.762,0.7619,0,0.7891,0.7892,0.7921,0.7914,0.787,0.7885,0.7867,0.7841,0.784,0.783,0.7828,0.7822,0.7818,0.7814,0.7768,0.7729,0.7799,0.7737,0.7781,0.7782,0.7799,0.7798,0.7956,0.7801,0.7801,0.7801,0.78,0,0.8016,0.8049,0.7977,0.7995,0.8029,0.7971,0.8006,0.7981,0.7958,0.7969,0.7909,0.7921,0.7859,0.7864,0.7828,0.7854,0.7854,0.7836,0.7826,0.7841,0.7843,0.7839,0.7831,0.7804,0.7804,0.7803,0.7802,0,0.8163,0.8116,0.8143,0.8097,0.8087,0.8114,0.8075,0.8089,0.8056,0.8071,0.8071,0.802,0.8022,0.7975,0.797,0.7945,0.7987,0.7966,0.7994,0.7987,0.8032,0.8028,0.8193,0.821,0.8046,0.8048,0.8049,0,0.8246,0.8269,0.8225,0.8227,0.8212,0.8217,0.8214,0.8157,0.8157,0.813,0.8148,0.8145,0.8139,0.8146,0.8109,0.8103,0.808,0.8138,0.8079,0.8092,0.8079,0.8077,0.8078,0.8151,0.8153,0.8154,0.8156,0,0.8396,0.837,0.8368,0.8357,0.8355,0.8344,0.8329,0.8334,0.8272,0.8275,0.8275,0.8271,0.8262,0.826,0.8246,0.8228,0.8181,0.8174,0.8184,0.8199,0.8213,0.8204,0.8026,0.8171,0.817,0.8168,0.8168,0.8167,0.8511,0.8527,0.8497,0.8496,0.8478,0.8465,0.8475,0.8442,0.8441,0.8429,0.8396,0.8401,0.8375,0.8352,0.8337,0.8341,0.8312,0.8327,0.833,0.8334,0.8341,0.8214,0.8338,0.8338,0.8337,0.8337,0.8337,0,0.8656,0.8633,0.8632,0.8611,0.861,0.8565,0.8545,0.8547,0.8552,0.8531,0.8526,0.8525,0.8521,0.8483,0.8474,0.8484,0.8462,0.8484,0.8482,0.8478,0.8369,0.836,0.8501,0.8501,0.8501,0.8501,0.8501,0.8501,0.8731,0.8755,0.8726,0.8739,0.8715,0.8719,0.8711,0.8698,0.868,0.8682,0.8678,0.8652,0.8623,0.8611,0.8605,0.8594,0.8593,0.8621,0.8603,0.8502,0.8486,0.8471,0.8462,0.8622,0.8622,0.8711,0.8712,0.8712]},{"header":{"parameterUnit":"m.s-1","parameterCategory":1,"la1":30.2991,"la2":30.254,"lo1":-89.0895,"lo2":-89.0444,"dy":0.0017,"dx":0.0017,"nx":28,"ny":28,"refTime":"2024-06-01T03:00:00:Z","depth":0,"parameterNumber":3,"parameterNumberName":"V-component_of_WINDS"},"data":[0,0,0,0,0,0,0,0,0,0,0,0,0,0,0,0,0,0,0,0,0,0,0,0,0,0,0,0,0,0,0,0,0,0,0,0,0,0,0,0,0,0,0,0,0,0,0,0,0,0,0,0,0,0,0,0,0,0,5.9175,5.9175,0,5.9191,5.9191,5.9191,5.909,5.9087,5.9084,5.9081,5.9095,5.9098,5.9101,0,0,0,0,0,0,0,0,0,0,0,0,0,5.9052,5.9054,5.9175,5.9175,5.9175,5.9191,5.9191,5.9191,5.909,5.9087,5.9083,5.908,5.9094,5.9098,5.9101,0,0,0,0,0,0,0,0,0,0,0,0,0,5.909,5.9055,5.9175,5.9127,5.9123,5.9191,5.9191,5.9191,5.9091,5.9087,5.9082,5.9078,5.9093,5.9097,5.9102,5.9216,0,0,5.9116,5.9118,0,0,0,0,0,0,0,0,5.9088,5.9095,5.9134,5.913,5.9126,5.9134,5.9153,5.92,5.9092,5.9103,5.9081,5.9076,5.9111,5.9114,5.9126,5.9217,5.9217,5.9116,5.9119,5.9121,5.9122,0,0,0,0,0,0,0,5.9086,5.9094,5.9181,5.9134,5.9129,5.9103,5.9104,5.9161,5.9131,5.9102,5.9094,5.9098,5.9108,5.9122,5.9126,5.9218,5.9116,5.912,5.9123,5.9125,5.9398,5.9403,0,0,0,0,0,0,5.909,5.9092,5.9181,5.9182,5.9096,5.9109,5.9109,5.9136,5.913,5.9125,5.9101,5.9093,5.9117,5.9121,5.9126,5.9256,5.9121,5.9125,5.9128,5.9394,5.9399,5.9404,0,0,0,0,0,0,5.9088,5.9099,5.918,5.9135,5.9143,5.9115,5.9146,5.9138,5.9152,5.913,5.9124,5.9122,5.9113,5.912,5.9194,5.9255,5.9127,5.9131,5.9388,5.9396,5.9402,5.952,0,0,0,0,0,0,5.9085,5.9099,5.9143,5.9137,5.9146,5.9249,5.915,5.9142,5.9161,5.915,5.9147,5.9143,5.9111,5.9188,5.9198,5.9259,5.9135,5.9383,5.9392,5.94,5.951,5.953,5.9546,0,0,0,0,0,5.9081,5.9176,5.9146,5.9157,5.9201,5.9253,5.9258,5.922,5.9166,5.9209,5.9195,5.9143,5.9248,5.9196,5.9207,5.9271,5.9379,5.9389,5.9399,5.9502,5.9526,5.9546,0,0,0,0,0,0,5.919,5.9174,5.9141,5.9237,5.9247,5.9236,5.9289,5.9247,5.9272,5.926,5.9211,5.9212,5.9293,5.929,5.9232,5.9379,5.9303,5.9316,5.9378,5.94,5.9418,5.9416,5.9139,0,0,0,0,0,5.9225,5.927,5.9253,5.934,5.9347,5.9318,5.9339,5.9308,5.9316,5.932,5.931,5.9319,5.9353,5.9377,5.9408,5.951,5.9506,5.9559,5.9577,5.9592,5.9603,5.9653,5.9675,5.9438,5.9438,5.9437,0,0,5.9299,5.9296,5.9327,5.9362,5.9366,5.9411,5.9322,5.9374,5.9406,5.9327,5.9395,5.939,5.9396,5.9484,5.9522,5.9483,5.9668,5.9605,5.9617,5.962,5.9666,5.9688,5.9708,5.9445,5.9443,5.9442,0,0,5.9454,5.9459,5.9529,5.9535,5.9542,5.9522,5.9539,5.9534,5.9526,5.9595,5.9535,5.9573,5.9634,5.964,5.9651,5.9808,5.9759,5.9819,5.9913,5.9962,5.9981,5.9997,6.0049,6.0069,5.9831,5.9831,5.9831,0,5.9544,5.9611,5.957,5.9626,5.9641,5.9573,5.9642,5.965,5.9667,5.9678,5.9636,5.9709,5.9709,5.9795,5.9833,5.9846,5.9861,5.9818,5.9982,5.9998,6.0012,6.0061,6.0081,5.9838,5.9837,5.9836,5.9836,0,5.9718,5.9766,5.9821,5.9839,5.9861,5.9924,5.9891,5.9918,5.9886,5.987,5.9939,5.9936,5.9963,5.9982,5.9952,6.0064,6.0039,5.9991,5.9912,6.0042,6.0087,6.0106,5.9848,5.9845,5.9843,5.9842,0,0,5.9942,5.9936,5.9957,5.9962,5.9965,6.0,6.0058,6.0085,6.0108,6.0123,6.0168,6.0221,6.0175,6.0187,6.0157,6.0201,6.032,6.0146,6.0145,6.0175,6.0439,6.0474,6.0496,6.029,6.0294,6.0296,6.0438,0,6.0091,6.019,6.0155,6.0255,6.0296,6.0231,6.0282,6.0288,6.0274,6.0306,6.029,6.0327,6.0266,6.0272,6.0313,6.0298,6.0372,6.0287,6.0329,6.0331,6.0326,6.0521,6.0558,6.0691,6.0455,6.0458,6.0461,0,6.0278,6.0298,6.0403,6.0396,6.0412,6.0458,6.0478,6.051,6.0515,6.0502,6.0516,6.0475,6.053,6.0455,6.0528,6.0471,6.0486,6.0481,6.0485,6.0485,6.0401,6.0522,6.0733,6.0752,6.0489,6.0487,6.0485,0,6.0425,6.048,6.0548,6.0556,6.055,6.0583,6.0583,6.0583,6.0601,6.0619,6.0629,6.0655,6.0667,6.0686,6.0653,6.0602,6.0729,6.0653,6.0717,6.0718,6.0744,6.0742,6.0957,6.0761,6.0761,6.076,6.076,0,6.0593,6.0658,6.0614,6.0656,6.0727,6.0685,6.0756,6.0748,6.0749,6.0786,6.0733,6.077,6.0725,6.0757,6.0731,6.0793,6.0801,6.0789,6.0781,6.0792,6.0793,6.0799,6.0787,6.0765,6.0764,6.0763,6.0762,0,6.0768,6.0742,6.0811,6.08,6.0799,6.0851,6.0841,6.0878,6.0861,6.0909,6.0918,6.089,6.0925,6.0894,6.0928,6.091,6.0992,6.0973,6.099,6.0983,6.1049,6.1042,6.1272,6.1298,6.1088,6.1091,6.1092,0,6.0875,6.0924,6.0917,6.0939,6.0941,6.0977,6.0994,6.0955,6.0975,6.0984,6.102,6.105,6.1071,6.1129,6.1111,6.1136,6.1114,6.1193,6.1117,6.1126,6.1111,6.1107,6.111,6.1207,6.121,6.1212,6.1213,0,6.1066,6.105,6.1078,6.1101,6.1123,6.1139,6.1151,6.1171,6.1131,6.1156,6.119,6.1207,6.1241,6.127,6.1289,6.1286,6.1243,6.1238,6.1253,6.1263,6.127,6.1264,6.1028,6.1232,6.123,6.1229,6.1228,6.1227,6.1208,6.1246,6.1247,6.1279,6.1284,6.1296,6.1329,6.1316,6.1344,6.1368,6.1343,6.1385,6.1386,6.1407,6.141,6.144,6.1407,6.1431,6.1436,6.1442,6.1449,6.1269,6.1444,6.1444,6.1443,6.1443,6.1442,0,6.1392,6.139,6.142,6.1437,6.1462,6.142,6.143,6.1453,6.149,6.1495,6.1517,6.1556,6.1584,6.1569,6.1592,6.162,6.16,6.1627,6.1623,6.1622,6.148,6.1462,6.1642,6.1642,6.1642,6.1642,6.1642,6.1642,6.1491,6.1554,6.1538,6.1601,6.1598,6.1637,6.1647,6.1656,6.166,6.1705,6.1728,6.1719,6.1715,6.1738,6.1761,6.1756,6.1766,6.1799,6.1787,6.1653,6.1633,6.1614,6.1597,6.1803,6.1803,6.1926,6.1927,6.1928]}]]